EN

Hourly Weather Abdrahmanovo

Today, 14 June, Monday

Time Temperature Precipitation Wind Pressure Humidity
00:00 +17°C° 0 mm 2 mps 750 mmHg 74%
01:00 +18°C° 0 mm 1 mps 750 mmHg 70%
02:00 +18°C° 0 mm 1 mps 750 mmHg 70%
03:00 +18°C° 0 mm 1 mps 750 mmHg 69%
04:00 +18°C° 0 mm 1 mps 750 mmHg 69%
05:00 +18°C° 0 mm 2 mps 750 mmHg 68%
06:00 +19°C° 0 mm 2 mps 750 mmHg 66%
07:00 +21°C° 0 mm 2 mps 750 mmHg 64%
08:00 +22°C° 0 mm 3 mps 750 mmHg 61%
09:00 +23°C° 0 mm 4 mps 750 mmHg 58%
10:00 +26°C° 0 mm 5 mps 750 mmHg 55%
11:00 +27°C° 0 mm 5 mps 750 mmHg 53%
12:00 +28°C° 0 mm 5 mps 750 mmHg 51%
13:00 +29°C° 0 mm 6 mps 750 mmHg 50%
14:00 +29°C° 0.1 mm 5 mps 750 mmHg 53%
15:00 +28°C° 0.1 mm 4 mps 750 mmHg 57%
16:00 +28°C° 0.1 mm 2 mps 750 mmHg 61%
17:00 +26°C° 1.5 mm 3 mps 750 mmHg 70%
18:00 +24°C° 1.5 mm 3 mps 750 mmHg 78%
19:00 +20°C° 1.5 mm 3 mps 750 mmHg 87%
20:00 +20°C° 0.4 mm 3 mps 750 mmHg 89%
21:00 +19°C° 0.4 mm 4 mps 750 mmHg 90%
22:00 +19°C° 0.4 mm 4 mps 750 mmHg 91%
23:00 +19°C° 0 mm 3 mps 750 mmHg 91%

Tomorrow, 15 June, Tuesday

Time Temperature Precipitation Wind Pressure Humidity
00:00 +19°C° 0 mm 3 mps 750 mmHg 91%
01:00 +19°C° 0 mm 2 mps 750 mmHg 90%
02:00 +19°C° 0 mm 2 mps 750 mmHg 90%
03:00 +20°C° 0 mm 1 mps 750 mmHg 90%
04:00 +20°C° 0 mm 1 mps 750 mmHg 90%
05:00 +20°C° 0 mm 1 mps 750 mmHg 88%
06:00 +21°C° 0 mm 1 mps 750 mmHg 87%
07:00 +21°C° 0 mm 1 mps 750 mmHg 86%
08:00 +21°C° 0 mm 2 mps 751 mmHg 82%
09:00 +23°C° 0 mm 2 mps 751 mmHg 79%
10:00 +24°C° 0 mm 3 mps 751 mmHg 75%
11:00 +25°C° 0 mm 2 mps 751 mmHg 70%
12:00 +26°C° 0 mm 2 mps 750 mmHg 64%
13:00 +28°C° 0 mm 2 mps 750 mmHg 58%
14:00 +28°C° 0 mm 1 mps 750 mmHg 57%
15:00 +29°C° 0 mm 1 mps 750 mmHg 55%
16:00 +29°C° 0 mm 1 mps 750 mmHg 54%
17:00 +28°C° 0 mm 1 mps 749 mmHg 58%
18:00 +28°C° 0 mm 1 mps 749 mmHg 61%
19:00 +27°C° 0 mm 2 mps 749 mmHg 65%
20:00 +26°C° 0 mm 2 mps 749 mmHg 68%
21:00 +24°C° 0 mm 2 mps 749 mmHg 71%
22:00 +21°C° 0 mm 2 mps 749 mmHg 74%
23:00 +21°C° 0 mm 2 mps 748 mmHg 74%

Day after tomorrow, 16 June, Wednesday

Time Temperature Precipitation Wind Pressure Humidity
00:00 +20°C° 0 mm 2 mps 748 mmHg 74%
01:00 +20°C° 0 mm 3 mps 748 mmHg 73%
02:00 +20°C° 0 mm 3 mps 748 mmHg 71%
03:00 +20°C° 0 mm 2 mps 747 mmHg 68%
04:00 +20°C° 0 mm 2 mps 747 mmHg 66%
05:00 +21°C° 0 mm 3 mps 747 mmHg 66%
06:00 +22°C° 0 mm 3 mps 747 mmHg 66%
07:00 +22°C° 0 mm 3 mps 747 mmHg 66%
08:00 +25°C° 0 mm 4 mps 747 mmHg 63%
09:00 +26°C° 0 mm 5 mps 747 mmHg 60%
10:00 +27°C° 0 mm 5 mps 747 mmHg 56%
11:00 +27°C° 0 mm 6 mps 747 mmHg 55%
12:00 +28°C° 0 mm 6 mps 747 mmHg 54%
13:00 +28°C° 0 mm 6 mps 747 mmHg 53%
14:00 +28°C° 0 mm 5 mps 747 mmHg 55%
15:00 +28°C° 0 mm 5 mps 746 mmHg 57%
16:00 +28°C° 0 mm 5 mps 746 mmHg 59%
17:00 +27°C° 0.6 mm 4 mps 746 mmHg 65%
18:00 +25°C° 0.6 mm 2 mps 745 mmHg 71%
19:00 +24°C° 0.6 mm 1 mps 745 mmHg 77%
20:00 +23°C° 5.3 mm 1 mps 745 mmHg 81%
21:00 +21°C° 5.3 mm 1 mps 745 mmHg 85%
22:00 +20°C° 5.3 mm 1 mps 745 mmHg 89%
23:00 +20°C° 0.9 mm 1 mps 745 mmHg 90%

17 June, Thursday

Time Temperature Precipitation Wind Pressure Humidity
00:00 +19°C° 0.9 mm 2 mps 745 mmHg 91%
01:00 +19°C° 0.9 mm 2 mps 744 mmHg 92%
02:00 +18°C° 0 mm 2 mps 744 mmHg 92%
03:00 +18°C° 0 mm 2 mps 744 mmHg 92%
04:00 +18°C° 0 mm 2 mps 744 mmHg 93%
05:00 +19°C° 0 mm 2 mps 744 mmHg 92%
06:00 +19°C° 0 mm 3 mps 745 mmHg 92%
07:00 +20°C° 0 mm 4 mps 745 mmHg 92%
08:00 +19°C° 0 mm 4 mps 745 mmHg 91%
09:00 +19°C° 0 mm 5 mps 746 mmHg 90%
10:00 +17°C° 0 mm 5 mps 746 mmHg 89%
11:00 +17°C° 0 mm 5 mps 746 mmHg 86%
12:00 +19°C° 0 mm 6 mps 747 mmHg 83%
13:00 +19°C° 0 mm 6 mps 747 mmHg 79%
14:00 +19°C° 0 mm 6 mps 747 mmHg 76%
15:00 +20°C° 0 mm 5 mps 747 mmHg 73%
16:00 +20°C° 0 mm 5 mps 748 mmHg 70%
17:00 +20°C° 0 mm 5 mps 748 mmHg 69%
18:00 +20°C° 0 mm 5 mps 748 mmHg 69%
19:00 +19°C° 0 mm 5 mps 748 mmHg 68%
20:00 +17°C° 0 mm 5 mps 749 mmHg 67%
21:00 +16°C° 0 mm 5 mps 749 mmHg 67%
22:00 +15°C° 0 mm 5 mps 749 mmHg 66%
23:00 +14°C° 0 mm 4 mps 750 mmHg 67%

18 June, Friday

Time Temperature Precipitation Wind Pressure Humidity
00:00 +13°C° 0 mm 4 mps 750 mmHg 67%
01:00 +12°C° 0 mm 3 mps 750 mmHg 68%
02:00 +12°C° 0 mm 3 mps 750 mmHg 70%
03:00 +11°C° 0 mm 3 mps 751 mmHg 73%
04:00 +10°C° 0 mm 3 mps 751 mmHg 75%
05:00 +12°C° 0 mm 3 mps 751 mmHg 73%
06:00 +13°C° 0 mm 4 mps 752 mmHg 72%
07:00 +14°C° 0 mm 4 mps 752 mmHg 70%
08:00 +15°C° 0 mm 4 mps 752 mmHg 65%
09:00 +16°C° 0 mm 5 mps 753 mmHg 60%
10:00 +19°C° 0 mm 5 mps 753 mmHg 54%
11:00 +19°C° 0 mm 6 mps 753 mmHg 52%
12:00 +20°C° 0 mm 6 mps 753 mmHg 50%
13:00 +21°C° 0 mm 6 mps 753 mmHg 48%
14:00 +20°C° 0 mm 5 mps 754 mmHg 54%
15:00 +19°C° 0 mm 5 mps 754 mmHg 60%
16:00 +18°C° 0 mm 4 mps 754 mmHg 65%
17:00 +18°C° 0 mm 4 mps 754 mmHg 66%
18:00 +18°C° 0 mm 4 mps 755 mmHg 67%
19:00 +18°C° 0 mm 3 mps 755 mmHg 68%
20:00 +17°C° 0 mm 3 mps 755 mmHg 71%
21:00 +15°C° 0 mm 2 mps 755 mmHg 75%
22:00 +14°C° 0 mm 2 mps 755 mmHg 79%
23:00 +13°C° 0 mm 2 mps 756 mmHg 80%

19 June, Saturday

Time Temperature Precipitation Wind Pressure Humidity
00:00 +13°C° 0 mm 1 mps 756 mmHg 81%
01:00 +12°C° 0 mm 1 mps 756 mmHg 83%
02:00 +12°C° 0 mm 2 mps 757 mmHg 84%
03:00 +12°C° 0 mm 2 mps 757 mmHg 85%
04:00 +12°C° 0 mm 2 mps 757 mmHg 86%
05:00 +13°C° 0 mm 1 mps 757 mmHg 81%
06:00 +15°C° 0 mm 1 mps 757 mmHg 76%
07:00 +16°C° 0 mm 1 mps 758 mmHg 71%
08:00 +17°C° 0 mm 2 mps 758 mmHg 65%
09:00 +19°C° 0 mm 2 mps 758 mmHg 60%
10:00 +20°C° 0 mm 3 mps 757 mmHg 55%
11:00 +21°C° 0 mm 3 mps 757 mmHg 53%
12:00 +22°C° 0 mm 3 mps 757 mmHg 52%
13:00 +22°C° 0 mm 4 mps 756 mmHg 50%
14:00 +22°C° 0 mm 4 mps 756 mmHg 51%
15:00 +23°C° 0 mm 5 mps 756 mmHg 53%
16:00 +23°C° 0 mm 5 mps 755 mmHg 54%
17:00 +23°C° 0 mm 5 mps 755 mmHg 60%
18:00 +22°C° 0 mm 4 mps 755 mmHg 65%
19:00 +22°C° 0 mm 4 mps 754 mmHg 71%
20:00 +20°C° 0 mm 4 mps 754 mmHg 77%
21:00 +19°C° 0 mm 3 mps 754 mmHg 83%
22:00 +18°C° 0 mm 3 mps 753 mmHg 89%
23:00 +18°C° 0.1 mm 4 mps 753 mmHg 90%
Show more